This is the latest recevied weather packets stored in our database for station/object F4IEI-10. If no packets are shown the sender has not sent any weather packets the latest 10 day(s).
| Time | Temp. | Humidity | Pressure | Rain* | Wind** | Luminosity | Snow |
|---|---|---|---|---|---|---|---|
| 1777682615 | 13.89° C | 100% | 1020.2 hPa | - | - | - | - |
| 1777681714 | 13.89° C | 100% | 1020.3 hPa | - | - | - | - |
| 1777680814 | 13.89° C | 100% | 1020.5 hPa | - | - | - | - |
| 1777679914 | 13.89° C | 100% | 1020.5 hPa | - | - | - | - |
| 1777679014 | 14.44° C | 100% | 1020.5 hPa | - | - | - | - |
| 1777678114 | 14.44° C | 100% | 1020.5 hPa | - | - | - | - |
| 1777677214 | 14.44° C | 100% | 1020.6 hPa | - | - | - | - |
| 1777676315 | 14.44° C | 100% | 1020.6 hPa | - | - | - | - |
| 1777675414 | 13.89° C | 94% | 1020.7 hPa | - | - | - | - |
| 1777674515 | 14.44° C | 87% | 1020.7 hPa | - | - | - | - |
| 1777673614 | 13.89° C | 83% | 1020.7 hPa | - | - | - | - |
| 1777672714 | 13.89° C | 88% | 1020.6 hPa | - | - | - | - |
| 1777671814 | 14.44° C | 80% | 1020.5 hPa | - | - | - | - |
| 1777670914 | 14.44° C | 86% | 1020.5 hPa | - | - | - | - |
| 1777670014 | 15° C | 100% | 1020.6 hPa | - | - | - | - |
| 1777669114 | 15° C | 100% | 1020.7 hPa | - | - | - | - |
| 1777668214 | 15° C | 84% | 1020.8 hPa | - | - | - | - |
| 1777667314 | 15° C | 100% | 1020.8 hPa | - | - | - | - |
| 1777666414 | 15° C | 100% | 1020.7 hPa | - | - | - | - |
| 1777665510 | 14.44° C | 79% | 1020.6 hPa | - | - | - | - |
| 1777664614 | 15° C | 78% | 1020.7 hPa | - | - | - | - |
| 1777663710 | 15° C | 76% | 1020.7 hPa | - | - | - | - |
| 1777662810 | 16.11° C | 66% | 1020.5 hPa | - | - | - | - |
| 1777661910 | 17.22° C | 70% | 1020.5 hPa | - | - | - | - |
| 1777661010 | 17.78° C | 65% | 1020 hPa | - | - | - | - |
* Rain since midnight (hover to see other rain measurements)
** Current wind speed in m/s (hover to see current wind gust speed)